Location: ???? ??
(36.0534°N, 43.5630°E)
Time: 10:07:13
(UTC+00:00)

NOSS 3-4 (A) - Pass Details

Date: 18 September 2019
Orbit: 910 x 1303 km, 63.4° (Epoch: 17 October)

Event Time Altitude Azimuth Distance (km) Brightness Sun altitude
Rises 16:15:05 0° 334° (NNW) 3,864 7.2 -14.0°
Reaches altitude 10° 16:17:51 10° 342° (NNW) 2,964 6.4 -14.5°
Maximum altitude 16:24:31 41° 51° (NE) 1,647 4.4 -15.8°
Enters shadow 16:28:39 24° 105° (ESE) 2,306 4.8 -16.7°
